Danville, ME

6:19 PM EDT on August 27, 2016 (GMT -0400)
Auburn-Lewiston Municipal

Weather History for KLEW - February, 2013

Change the Weather History Date:

Monday, February 25, 2013

  Actual Average Record
Temperature  
Mean Temperature 33 °F -  
Max Temperature 42 °F 33 °F 55 °F (2016)
Min Temperature 24 °F 16 °F 3 °F (2009)
Degree Days  
Heating Degree Days 32    
Moisture  
Dew Point 24 °F    
Average Humidity 75    
Maximum Humidity 93    
Minimum Humidity 46    
Precipitation  
Precipitation 0.00 in - - ()
Sea Level Pressure  
Sea Level Pressure 30.08 in    
Wind  
Wind Speed 5 mph (NNE)    
Max Wind Speed 13 mph    
Max Gust Speed -    
Visibility 10 miles    
Events      
Averages and records for this station are not official NWS values.
T = Trace of Precipitation, MM = Missing Value Source: NWS Daily Summary

Daily Weather History Graph

Daily Weather History Graph

Search for Another Location

Airport or City:

Trip Planner

Search our weather history database for the weather conditions in past years. The results will help you decide how hot, cold, wet, or windy it might be!

Date:

Astronomy

Feb. 25, 2013 Rise Set
Actual Time 6:24 AM EST 5:24 PM EST
Civil Twilight 5:55 AM EST 5:53 PM EST
Nautical Twilight 5:21 AM EST 6:27 PM EST
Astronomical Twilight 4:48 AM EST 7:00 PM EST
Moon 5:36 PM EST (2/25) 5:51 AM EST (2/25)
Length of Visible Light 11h 58m
Length of Day
11h 00m
Full, 100% of the Moon is Illuminated
Feb 25
Full
Feb 25
Full
Mar 4
Last Quarter
Mar 11
New
Mar 19
First Quarter

Hourly Weather History & Observations

Time (EST) Temp. Windchill Dew Point Humidity Pressure Visibility Wind Dir Wind Speed Gust Speed Precip Events Conditions
12:15 AM 28.4 °F 20.4 °F 24.8 °F 86% 29.90 in 5.0 mi NNE 8.1 mph - N/A   Overcast
12:35 AM 26.6 °F 20.0 °F 24.8 °F 93% 29.91 in 4.0 mi North 5.8 mph - N/A   Overcast
1:15 AM 26.6 °F 19.1 °F 24.8 °F 93% 29.91 in 9.0 mi North 6.9 mph - N/A   Overcast
1:35 AM 26.6 °F 20.0 °F 24.8 °F 93% 29.92 in 10.0 mi North 5.8 mph - N/A   Overcast
1:55 AM 26.6 °F 20.0 °F 23.0 °F 86% 29.92 in 10.0 mi North 5.8 mph - N/A   Overcast
2:15 AM 26.6 °F 20.0 °F 23.0 °F 86% 29.92 in 10.0 mi North 5.8 mph - N/A   Overcast
2:35 AM 26.6 °F 22.6 °F 23.0 °F 86% 29.92 in 10.0 mi NNW 3.5 mph - N/A   Overcast
2:55 AM 24.8 °F 19.1 °F 21.2 °F 86% 29.93 in 10.0 mi NNW 4.6 mph - N/A   Mostly Cloudy
3:15 AM 26.6 °F 20.0 °F 23.0 °F 86% 29.93 in 10.0 mi NNW 5.8 mph - N/A   Overcast
3:35 AM 26.6 °F 22.6 °F 24.8 °F 93% 29.94 in 10.0 mi North 3.5 mph - N/A   Overcast
3:55 AM 26.6 °F 22.6 °F 23.0 °F 86% 29.94 in 10.0 mi North 3.5 mph - N/A   Overcast
4:15 AM 26.6 °F 22.6 °F 23.0 °F 86% 29.94 in 10.0 mi North 3.5 mph - N/A   Overcast
4:35 AM 26.6 °F 22.6 °F 23.0 °F 86% 29.95 in 10.0 mi North 3.5 mph - N/A   Overcast
4:55 AM 26.6 °F 22.6 °F 24.8 °F 93% 29.96 in 10.0 mi North 3.5 mph - N/A   Overcast
5:15 AM 26.6 °F - 23.0 °F 86% 29.96 in 10.0 mi Calm Calm - N/A   Overcast
5:35 AM 26.6 °F 22.6 °F 23.0 °F 86% 29.98 in 10.0 mi NNW 3.5 mph - N/A   Overcast
5:55 AM 26.6 °F 22.6 °F 23.0 °F 86% 29.98 in 10.0 mi North 3.5 mph - N/A   Overcast
6:15 AM 26.6 °F - 24.8 °F 93% 29.99 in 10.0 mi Calm Calm - N/A   Overcast
6:35 AM 26.6 °F 22.6 °F 23.0 °F 86% 30.01 in 10.0 mi North 3.5 mph - N/A   Overcast
7:15 AM 26.6 °F - 23.0 °F 86% 30.02 in 10.0 mi Calm Calm - N/A   Overcast
7:35 AM 26.6 °F 21.2 °F 24.8 °F 93% 30.02 in 10.0 mi North 4.6 mph - N/A   Scattered Clouds
7:56 AM 26.6 °F 22.6 °F 23.0 °F 86% 30.03 in 10.0 mi North 3.5 mph - N/A   Clear
8:15 AM 26.6 °F - 24.8 °F 93% 30.03 in 4.0 mi Calm Calm - N/A   Clear
8:35 AM 28.4 °F 24.6 °F 24.8 °F 86% 30.04 in 10.0 mi North 3.5 mph - N/A   Clear
8:55 AM 28.4 °F 21.2 °F 23.0 °F 80% 30.04 in 10.0 mi North 6.9 mph - N/A   Clear
9:15 AM 30.2 °F 24.3 °F 24.8 °F 80% 30.05 in 7.0 mi North 5.8 mph - N/A   Clear
9:35 AM 30.2 °F 21.3 °F 24.8 °F 80% 30.06 in 10.0 mi NNE 10.4 mph - N/A   Clear
9:55 AM 32.0 °F 23.6 °F 26.6 °F 80% 30.06 in 10.0 mi NNE 10.4 mph - N/A   Mostly Cloudy
10:15 AM 33.8 °F 25.3 °F 24.8 °F 70% 30.06 in 10.0 mi North 11.5 mph - N/A   Overcast
10:35 AM 33.8 °F 25.8 °F 23.0 °F 65% 30.07 in 10.0 mi NNE 10.4 mph - N/A   Overcast
10:55 AM 33.8 °F 24.8 °F 23.0 °F 65% 30.07 in 10.0 mi NNE 12.7 mph - N/A   Scattered Clouds
11:15 AM 33.8 °F 25.8 °F 21.2 °F 60% 30.08 in 10.0 mi NNE 10.4 mph - N/A   Clear
11:35 AM 33.8 °F 27.0 °F 23.0 °F 65% 30.09 in 10.0 mi NNE 8.1 mph - N/A   Clear
11:55 AM 35.6 °F 31.7 °F 23.0 °F 60% 30.09 in 10.0 mi NE 4.6 mph - N/A   Clear
12:15 PM 35.6 °F - 23.0 °F 60% 30.08 in 10.0 mi Calm Calm - N/A   Mostly Cloudy
12:35 PM 35.6 °F 31.7 °F 24.8 °F 65% 30.09 in 10.0 mi North 4.6 mph - N/A   Mostly Cloudy
12:55 PM 35.6 °F 30.7 °F 24.8 °F 65% 30.09 in 10.0 mi NNE 5.8 mph - N/A   Scattered Clouds
1:35 PM 37.4 °F 34.9 °F 23.0 °F 56% - 10.0 mi NNE 3.5 mph - N/A   Scattered Clouds
1:55 PM 37.4 °F 31.4 °F 21.2 °F 52% - 10.0 mi NE 8.1 mph - N/A   Clear
2:15 PM 37.4 °F 32.8 °F 21.2 °F 52% 30.10 in 10.0 mi North 5.8 mph - N/A   Clear
2:35 PM 37.4 °F 31.4 °F 21.2 °F 52% 30.11 in 10.0 mi North 8.1 mph - N/A   Clear
2:55 PM 39.2 °F - 21.2 °F 49% 30.12 in 10.0 mi Calm Calm - N/A   Clear
3:15 PM 39.2 °F - 21.2 °F 49% 30.12 in 10.0 mi Calm Calm - N/A   Clear
3:35 PM 42.8 °F - 23.0 °F 46% 30.13 in 10.0 mi Calm Calm - N/A   Clear
3:55 PM 39.2 °F - 21.2 °F 49% 30.13 in 10.0 mi Calm Calm - N/A   Mostly Cloudy
4:15 PM 39.2 °F - 21.2 °F 49% 30.14 in 10.0 mi Calm Calm - N/A   Overcast
4:35 PM 39.2 °F - 23.0 °F 52% 30.14 in 10.0 mi Calm Calm - N/A   Overcast
4:55 PM 39.2 °F - 21.2 °F 49% 30.15 in 10.0 mi Calm Calm - N/A   Overcast
5:15 PM 37.4 °F - 23.0 °F 56% 30.15 in 10.0 mi Calm Calm - N/A   Overcast
5:35 PM 35.6 °F - 26.6 °F 70% 30.16 in 10.0 mi Calm Calm - N/A   Overcast
5:55 PM 37.4 °F - 26.6 °F 65% 30.16 in 10.0 mi Calm Calm - N/A   Overcast
6:15 PM 37.4 °F 33.8 °F 26.6 °F 65% 30.16 in 10.0 mi ESE 4.6 mph - N/A   Overcast
6:35 PM 37.4 °F 34.9 °F 23.0 °F 56% 30.16 in 10.0 mi East 3.5 mph - N/A   Overcast
6:56 PM 35.6 °F 30.7 °F 24.8 °F 65% 30.17 in 10.0 mi East 5.8 mph - N/A   Overcast
7:15 PM 35.6 °F 31.7 °F 24.8 °F 65% 30.17 in 10.0 mi East 4.6 mph - N/A   Overcast
7:35 PM 35.6 °F - 24.8 °F 65% 30.17 in 10.0 mi Calm Calm - N/A   Overcast
7:55 PM 32.0 °F - 28.4 °F 87% 30.18 in 10.0 mi Calm Calm - N/A   Overcast
8:15 PM 32.0 °F - 28.4 °F 87% 30.19 in 10.0 mi Calm Calm - N/A   Overcast
8:35 PM 33.8 °F - 26.6 °F 75% 30.22 in 10.0 mi Calm Calm - N/A   Overcast
8:55 PM 32.0 °F 28.7 °F 28.4 °F 87% 30.20 in 10.0 mi South 3.5 mph - N/A   Overcast
9:15 PM 33.8 °F - 28.4 °F 81% 30.22 in 10.0 mi Calm Calm - N/A   Overcast
9:35 PM 33.8 °F - 28.4 °F 81% 30.22 in 10.0 mi Calm Calm - N/A   Overcast
9:55 PM 33.8 °F - 28.4 °F 81% 30.22 in 10.0 mi Calm Calm - N/A   Overcast
10:15 PM 32.0 °F - 28.4 °F 87% 30.22 in 10.0 mi Calm Calm - N/A   Overcast
10:35 PM 32.0 °F - 28.4 °F 87% 30.22 in 10.0 mi Calm Calm - N/A   Overcast
10:55 PM 33.8 °F - 28.4 °F 81% 30.22 in 10.0 mi Calm Calm - N/A   Overcast
11:15 PM 32.0 °F 28.7 °F 28.4 °F 87% 30.22 in 10.0 mi North 3.5 mph - N/A   Overcast
11:35 PM 30.2 °F 26.7 °F 28.4 °F 93% 30.22 in 10.0 mi North 3.5 mph - N/A   Overcast
11:55 PM 32.0 °F 28.7 °F 28.4 °F 87% 30.23 in 10.0 mi North 3.5 mph - N/A   Overcast